Regional Weather Roundup
Issued by NWS Little Rock, AR

Home | Current Version | Previous Version | Graphics & Text | Print | Product List | Glossary On
Versions: 1 2 3 4 5 6 7 8 9 10 11 12 13 14 15 16 17 18 19 20 21 22 23 24 25 26 27 28 29 30 31 32 33 34 35 36 37 38 39 40 41 42 43 44 45 46 47 48 49 50
000
ASUS44 KLZK 230305
RWRLZK

WEATHER ROUNDUP FOR ARKANSAS
NATIONAL WEATHER SERVICE LITTLE ROCK AR
1000 PM CDT MON MAY 22 2017

NOTE: "FAIR" INDICATES FEW OR NO CLOUDS BELOW 12,000 FEET WITH NO
SIGNIFICANT WEATHER AND/OR OBSTRUCTIONS TO VISIBILITY.

ARZ001-003-010-029-230400-
NORTHWEST ARKANSAS

CITY           SKY/WX    TMP DP  RH WIND       PRES   REMARKS
FAYETTEVILLE   CLOUDY    60  57  89 S5        29.94S
FORT SMITH     MOCLDY    71  51  49 E5        29.92S
HARRISON       CLOUDY    60  52  74 VRB5      29.96R
BENTONVILLE    CLOUDY    66  54  63 CALM      29.94F
ROGERS         CLOUDY    66  55  67 CALM      29.95S
SILOAM SPGS    CLOUDY    64  54  68 CALM      29.93F
HIGHFILL       CLOUDY    66  56  70 SW3       29.94S
$$

ARZ004-005-016-230400-
NORTH CENTRAL ARKANSAS

CITY           SKY/WX    TMP DP  RH WIND       PRES   REMARKS
BATESVILLE     CLOUDY    63  54  72 CALM      29.96S
FLIPPIN        CLOUDY    63  48  59 CALM      29.92S
MTN HOME       CLOUDY    64  51  62 S5        29.93F
$$

ARZ040-041-230400-
WEST CENTRAL ARKANSAS

CITY           SKY/WX    TMP DP  RH WIND       PRES   REMARKS
MENA           CLOUDY    64  61  88 CALM      29.96R
MOUNT IDA      CLOUDY    62  56  80 CALM      29.94S
$$

ARZ009-017-025-026-028-230400-
NORTHEAST ARKANSAS

CITY           SKY/WX    TMP DP  RH WIND       PRES   REMARKS
JONESBORO      CLOUDY    62  56  80 NW3       29.94F
NEWPORT        CLOUDY    65  60  84 CALM      29.95F
WALNUT RIDGE   CLOUDY    64  54  68 S5        29.95S
BLYTHEVILLE    CLOUDY    69  52  54 CALM      29.95S
$$

ARZ022-023-033-042-044-230400-
CENTRAL ARKANSAS

CITY           SKY/WX    TMP DP  RH WIND       PRES   REMARKS
LITTLE ROCK    CLOUDY    64  58  80 S3        29.95S
N LITTLE ROCK    N/A     63  57  81 CALM      29.95S
JACKSONVILLE   MOCLDY    64  57  78 CALM      29.94S
CONWAY           N/A     66  59  77 SE3       29.93F
SEARCY         CLOUDY    62  60  93 CALM      29.97S
HOT SPRINGS    CLOUDY    66  56  70 CALM      29.95S
RUSSELLVILLE   CLOUDY    65  54  67 CALM      29.94S
CLINTON        CLOUDY    63  57  82 CALM      29.96S
$$

ARZ036-230400-
EAST ARKANSAS

CITY           SKY/WX    TMP DP  RH WIND       PRES   REMARKS
WEST MEMPHIS   CLOUDY    65  60  84 CALM      29.93F
$$

ARZ050-053-066-070-073-230400-
SOUTHWEST ARKANSAS

CITY           SKY/WX    TMP DP  RH WIND       PRES   REMARKS
ARKADELPHIA      N/A     65  60  84 CALM      29.95F
CAMDEN         CLOUDY    63  59  88 CALM      29.95S
TEXARKANA      CLOUDY    61  59  93 NE3       29.95F
EL DORADO      CLOUDY    62  61  96 N5        29.95S
DE QUEEN       MOCLDY    64  59  83 S3        29.93S
$$

ARZ056-057-069-230400-
SOUTHEAST ARKANSAS

CITY           SKY/WX    TMP DP  RH WIND       PRES   REMARKS
PINE BLUFF     CLOUDY    65  58  78 CALM      29.95F
STUTTGART      CLOUDY    66  50  55 NW5       29.96S
MONTICELLO     CLOUDY    63  60  90 CALM      29.94F

$$





USA.gov is the U.S. government's official web portal to all federal, state and local government web resources and services.